[[{"header":{"parameterUnit":"m.s-1","parameterCategory":1,"la1":30.2991,"la2":30.254,"lo1":-89.0895,"lo2":-89.0444,"dy":0.0017,"dx":0.0017,"nx":28,"ny":28,"refTime":"2023-04-12T21:00:00:Z","depth":0,"parameterNumber":2,"parameterNumberName":"U-component_of_WINDS"},"data":[0,0,0,0,0,0,0,0,0,0,0,0,0,0,0,0,0,0,0,0,0,0,0,0,0,0,0,0,0,0,0,0,0,0,0,0,0,0,0,0,0,0,0,0,0,0,0,0,0,0,0,0,0,0,0,0,0,0,-6.0724,-6.0725,0,-6.0812,-6.0813,-6.0814,-6.0688,-6.0684,-6.0679,-6.0675,-6.0767,-6.0773,-6.078,0,0,0,0,0,0,0,0,0,0,0,0,0,-6.0446,-6.0452,-6.0724,-6.0725,-6.0726,-6.0812,-6.0813,-6.0815,-6.0689,-6.0683,-6.0678,-6.0673,-6.0765,-6.0772,-6.078,0,0,0,0,0,0,0,0,0,0,0,0,0,-6.0554,-6.0454,-6.0723,-6.0673,-6.067,-6.0812,-6.0813,-6.0815,-6.069,-6.0683,-6.0676,-6.067,-6.0762,-6.0772,-6.0781,-6.0977,0,0,-6.0812,-6.0816,0,0,0,0,0,0,0,0,-6.0548,-6.0564,-6.068,-6.0677,-6.0673,-6.0732,-6.0749,-6.0869,-6.0692,-6.0682,-6.0675,-6.0667,-6.0761,-6.077,-6.0802,-6.0981,-6.0985,-6.0813,-6.0819,-6.0823,-6.0826,0,0,0,0,0,0,0,-6.0541,-6.056,-6.0759,-6.0682,-6.0678,-6.0647,-6.0655,-6.0771,-6.0758,-6.0683,-6.0674,-6.0686,-6.0758,-6.0793,-6.0803,-6.0987,-6.0812,-6.0821,-6.0827,-6.0831,-6.1332,-6.1339,0,0,0,0,0,0,-6.0539,-6.0554,-6.0756,-6.0761,-6.0593,-6.0657,-6.0666,-6.072,-6.0757,-6.0756,-6.0691,-6.068,-6.0779,-6.0792,-6.0806,-6.1038,-6.0823,-6.0832,-6.0838,-6.1325,-6.1334,-6.1342,0,0,0,0,0,0,-6.0534,-6.0558,-6.0752,-6.0656,-6.0678,-6.0669,-6.0731,-6.0725,-6.076,-6.0763,-6.076,-6.073,-6.0774,-6.0792,-6.0935,-6.104,-6.0837,-6.0846,-6.1316,-6.1327,-6.1338,-6.1505,0,0,0,0,0,0,-6.0526,-6.0557,-6.0631,-6.0658,-6.0683,-6.0881,-6.0737,-6.0732,-6.0777,-6.0763,-6.0798,-6.0797,-6.077,-6.0921,-6.0945,-6.105,-6.0853,-6.1307,-6.1321,-6.1334,-6.149,-6.152,-6.1546,0,0,0,0,0,-6.0517,-6.0675,-6.0636,-6.0661,-6.0776,-6.0887,-6.0902,-6.0867,-6.0786,-6.0861,-6.0863,-6.0796,-6.1024,-6.0937,-6.0963,-6.1072,-6.13,-6.1317,-6.1333,-6.1477,-6.1514,-6.1545,0,0,0,0,0,0,-6.0661,-6.0677,-6.0634,-6.0805,-6.0846,-6.0866,-6.0959,-6.0907,-6.0971,-6.0955,-6.0909,-6.0918,-6.1072,-6.1086,-6.0989,-6.1264,-6.1149,-6.1171,-6.125,-6.1285,-6.1312,-6.1306,-6.0862,0,0,0,0,0,-6.0712,-6.0801,-6.081,-6.0961,-6.0983,-6.0968,-6.1015,-6.0985,-6.1025,-6.1041,-6.1054,-6.1096,-6.1176,-6.1231,-6.1305,-6.149,-6.1497,-6.1578,-6.1606,-6.1629,-6.165,-6.175,-6.1787,-6.1396,-6.1396,-6.1395,0,0,-6.082,-6.084,-6.0899,-6.099,-6.1018,-6.1112,-6.0983,-6.1087,-6.1156,-6.1057,-6.1194,-6.1205,-6.1248,-6.1414,-6.1488,-6.143,-6.1759,-6.165,-6.1669,-6.1677,-6.1771,-6.1808,-6.1841,-6.1407,-6.1405,-6.1403,0,0,-6.1064,-6.1088,-6.1216,-6.1247,-6.129,-6.1279,-6.131,-6.1338,-6.1341,-6.1477,-6.1405,-6.1486,-6.1626,-6.1661,-6.1697,-6.1955,-6.1896,-6.198,-6.2127,-6.2226,-6.2257,-6.2284,-6.2378,-6.2412,-6.2,-6.2001,-6.2001,0,-6.1193,-6.1331,-6.1289,-6.1399,-6.1442,-6.1355,-6.1485,-6.1517,-6.1583,-6.1615,-6.1549,-6.1724,-6.1747,-6.192,-6.1983,-6.2014,-6.2049,-6.1977,-6.2255,-6.2282,-6.2307,-6.2396,-6.2431,-6.2011,-6.2009,-6.2008,-6.2007,0,-6.1488,-6.1584,-6.1683,-6.1749,-6.1802,-6.1922,-6.1899,-6.1958,-6.1923,-6.1919,-6.2059,-6.2084,-6.2162,-6.22,-6.2167,-6.237,-6.2333,-6.2263,-6.2146,-6.2355,-6.2438,-6.2472,-6.2025,-6.2021,-6.2018,-6.2016,0,0,-6.1827,-6.1868,-6.1905,-6.1934,-6.1976,-6.205,-6.2165,-6.2242,-6.2295,-6.2343,-6.2439,-6.256,-6.2495,-6.2536,-6.2505,-6.2591,-6.2796,-6.251,-6.251,-6.2564,-6.3023,-6.3078,-6.3118,-6.2757,-6.2763,-6.2768,-6.302,0,-6.2072,-6.2272,-6.2238,-6.2432,-6.2522,-6.2441,-6.2542,-6.2579,-6.2578,-6.2654,-6.2652,-6.2739,-6.2645,-6.267,-6.2751,-6.2754,-6.2888,-6.2735,-6.2848,-6.2852,-6.2842,-6.3161,-6.3219,-6.3456,-6.3052,-6.3058,-6.3061,0,-6.2386,-6.2446,-6.265,-6.2678,-6.2714,-6.2805,-6.2873,-6.2946,-6.2986,-6.298,-6.3026,-6.2979,-6.3095,-6.2976,-6.3136,-6.3032,-6.3076,-6.3084,-6.3093,-6.3104,-6.2971,-6.3183,-6.3531,-6.3567,-6.3112,-6.3108,-6.3104,0,-6.2616,-6.2747,-6.2886,-6.2913,-6.2949,-6.3016,-6.3034,-6.3067,-6.3115,-6.3174,-6.3206,-6.3278,-6.3318,-6.3375,-6.3349,-6.3264,-6.3515,-6.3393,-6.3514,-6.3515,-6.3572,-6.3569,-6.3935,-6.3597,-6.3597,-6.3596,-6.3595,0,-6.2895,-6.3023,-6.299,-6.3076,-6.3217,-6.3176,-6.3317,-6.3326,-6.3356,-6.3443,-6.3376,-6.3459,-6.3419,-6.3499,-6.3479,-6.3616,-6.3634,-6.3633,-6.3626,-6.364,-6.3641,-6.367,-6.3654,-6.3605,-6.3603,-6.3601,-6.36,0,-6.3176,-6.3159,-6.3306,-6.3327,-6.3336,-6.3439,-6.3458,-6.3539,-6.3532,-6.3642,-6.3666,-6.3656,-6.3747,-6.3726,-6.3826,-6.3813,-6.3985,-6.3957,-6.3972,-6.3966,-6.4089,-6.4079,-6.4488,-6.454,-6.4167,-6.417,-6.4173,0,-6.3357,-6.3454,-6.3486,-6.3539,-6.3562,-6.3648,-6.3697,-6.366,-6.3715,-6.3768,-6.3843,-6.3927,-6.3993,-6.4142,-6.4144,-6.422,-6.4195,-6.4333,-6.4206,-6.4217,-6.42,-6.4195,-6.4206,-6.4359,-6.4363,-6.4367,-6.437,0,-6.368,-6.3667,-6.374,-6.3811,-6.3872,-6.3926,-6.3974,-6.4021,-6.3988,-6.4052,-6.4144,-6.4195,-6.4296,-6.4382,-6.4452,-6.4471,-6.4417,-6.4409,-6.4442,-6.4458,-6.4463,-6.4464,-6.4043,-6.4401,-6.4397,-6.4395,-6.4393,-6.4392,-6.3918,-6.4001,-6.4036,-6.4121,-6.4153,-6.4199,-6.4276,-6.4279,-6.4355,-6.4435,-6.4408,-6.4514,-6.4551,-6.464,-6.4667,-6.475,-6.4698,-6.4744,-6.4756,-6.4769,-6.4785,-6.4448,-6.4762,-6.4761,-6.476,-6.4759,-6.4759,0,-6.4239,-6.4258,-6.4336,-6.4405,-6.4472,-6.4412,-6.4462,-6.4522,-6.4616,-6.4655,-6.4722,-6.4828,-6.4911,-6.4919,-6.4998,-6.5062,-6.5039,-6.5084,-6.508,-6.5086,-6.4826,-6.4791,-6.5102,-6.5102,-6.5101,-6.5101,-6.5101,-6.5101,-6.4414,-6.4552,-6.4543,-6.4696,-6.4713,-6.4816,-6.485,-6.4893,-6.4924,-6.5046,-6.5114,-6.5119,-6.5147,-6.5226,-6.53,-6.53,-6.5333,-6.5389,-6.538,-6.5138,-6.5104,-6.5071,-6.5038,-6.5396,-6.5396,-6.5633,-6.5635,-6.5637]},{"header":{"parameterUnit":"m.s-1","parameterCategory":1,"la1":30.2991,"la2":30.254,"lo1":-89.0895,"lo2":-89.0444,"dy":0.0017,"dx":0.0017,"nx":28,"ny":28,"refTime":"2023-04-12T21:00:00:Z","depth":0,"parameterNumber":3,"parameterNumberName":"V-component_of_WINDS"},"data":[0,0,0,0,0,0,0,0,0,0,0,0,0,0,0,0,0,0,0,0,0,0,0,0,0,0,0,0,0,0,0,0,0,0,0,0,0,0,0,0,0,0,0,0,0,0,0,0,0,0,0,0,0,0,0,0,0,0,-3.4199,-3.4198,0,-3.4188,-3.4188,-3.4188,-3.4132,-3.4131,-3.4129,-3.4128,-3.4117,-3.4118,-3.4119,0,0,0,0,0,0,0,0,0,0,0,0,0,-3.417,-3.4171,-3.4199,-3.4198,-3.4198,-3.4188,-3.4188,-3.4187,-3.4132,-3.4131,-3.4129,-3.4128,-3.4117,-3.4118,-3.4119,0,0,0,0,0,0,0,0,0,0,0,0,0,-3.4173,-3.4171,-3.4199,-3.4169,-3.4167,-3.4188,-3.4188,-3.4187,-3.4133,-3.4131,-3.4129,-3.4127,-3.4116,-3.4118,-3.4119,-3.4167,0,0,-3.4123,-3.4124,0,0,0,0,0,0,0,0,-3.4173,-3.4174,-3.4174,-3.4171,-3.4168,-3.4159,-3.4173,-3.4181,-3.4133,-3.4146,-3.4128,-3.4126,-3.4133,-3.4133,-3.4135,-3.4167,-3.4166,-3.4123,-3.4124,-3.4125,-3.4125,0,0,0,0,0,0,0,-3.4173,-3.4174,-3.4194,-3.4174,-3.4171,-3.4156,-3.4155,-3.4174,-3.415,-3.4144,-3.414,-3.414,-3.4131,-3.4134,-3.4134,-3.4166,-3.4123,-3.4125,-3.4125,-3.4126,-3.4235,-3.4237,0,0,0,0,0,0,-3.4177,-3.4174,-3.4195,-3.4194,-3.4166,-3.4159,-3.4157,-3.4164,-3.415,-3.4146,-3.4141,-3.4137,-3.4132,-3.4133,-3.4134,-3.4187,-3.4125,-3.4126,-3.4127,-3.4233,-3.4235,-3.4237,0,0,0,0,0,0,-3.4176,-3.4179,-3.4195,-3.4183,-3.4184,-3.4161,-3.417,-3.4165,-3.4168,-3.4148,-3.4143,-3.4149,-3.4131,-3.4132,-3.4159,-3.4186,-3.4127,-3.4128,-3.423,-3.4233,-3.4236,-3.4297,0,0,0,0,0,0,-3.4176,-3.4179,-3.4198,-3.4184,-3.4185,-3.4221,-3.4172,-3.4166,-3.417,-3.4165,-3.4154,-3.415,-3.4129,-3.4157,-3.416,-3.4187,-3.4129,-3.4228,-3.4232,-3.4235,-3.4292,-3.4302,-3.431,0,0,0,0,0,-3.4175,-3.4216,-3.4199,-3.4202,-3.4208,-3.4223,-3.4223,-3.4199,-3.4173,-3.4191,-3.4178,-3.415,-3.4183,-3.416,-3.4163,-3.4191,-3.4226,-3.423,-3.4235,-3.4288,-3.43,-3.4309,0,0,0,0,0,0,-3.4234,-3.4214,-3.4195,-3.4232,-3.423,-3.4213,-3.4236,-3.4212,-3.4217,-3.4211,-3.418,-3.4178,-3.421,-3.4203,-3.4178,-3.4236,-3.42,-3.4205,-3.4239,-3.425,-3.4258,-3.4259,-3.413,0,0,0,0,0,-3.4251,-3.4266,-3.4247,-3.4282,-3.4281,-3.4259,-3.4265,-3.4246,-3.4242,-3.424,-3.4229,-3.4226,-3.4235,-3.4242,-3.425,-3.4291,-3.4287,-3.4312,-3.432,-3.4328,-3.4333,-3.4352,-3.4362,-3.4252,-3.4252,-3.4252,0,0,-3.4288,-3.4278,-3.4289,-3.4294,-3.4289,-3.4304,-3.4258,-3.4276,-3.4287,-3.4243,-3.4268,-3.4259,-3.4254,-3.4288,-3.4302,-3.4283,-3.4362,-3.4334,-3.434,-3.434,-3.4358,-3.4368,-3.4377,-3.4256,-3.4255,-3.4254,0,0,-3.4361,-3.4356,-3.4383,-3.438,-3.4373,-3.4358,-3.4364,-3.4351,-3.4344,-3.4368,-3.4335,-3.4347,-3.4364,-3.4361,-3.4362,-3.4432,-3.4406,-3.4435,-3.448,-3.45,-3.4508,-3.4516,-3.454,-3.4549,-3.444,-3.4441,-3.4441,0,-3.4406,-3.4428,-3.4401,-3.442,-3.4422,-3.4383,-3.441,-3.4408,-3.4405,-3.4407,-3.4386,-3.4405,-3.4399,-3.4431,-3.4448,-3.445,-3.4456,-3.4436,-3.4509,-3.4517,-3.4523,-3.4545,-3.4554,-3.4444,-3.4444,-3.4443,-3.4443,0,-3.4483,-3.4498,-3.4521,-3.4518,-3.4523,-3.4547,-3.4522,-3.4531,-3.4511,-3.4498,-3.4522,-3.4513,-3.4517,-3.4523,-3.4505,-3.4552,-3.454,-3.4515,-3.4477,-3.4538,-3.4558,-3.4566,-3.4449,-3.4448,-3.4447,-3.4446,0,0,-3.4594,-3.4574,-3.4583,-3.4581,-3.457,-3.4581,-3.4602,-3.4606,-3.4613,-3.4612,-3.4628,-3.4643,-3.4618,-3.4619,-3.46,-3.4617,-3.4671,-3.4589,-3.4589,-3.4604,-3.4721,-3.4739,-3.475,-3.4654,-3.4656,-3.4657,-3.4721,0,-3.4662,-3.4697,-3.4673,-3.4711,-3.4724,-3.4686,-3.4704,-3.4699,-3.4687,-3.4695,-3.4682,-3.4692,-3.466,-3.466,-3.4676,-3.4662,-3.4694,-3.4657,-3.4668,-3.4669,-3.467,-3.476,-3.478,-3.4841,-3.4729,-3.473,-3.4731,0,-3.4747,-3.4749,-3.4789,-3.4774,-3.4778,-3.4795,-3.4796,-3.4805,-3.4798,-3.4787,-3.4788,-3.4764,-3.4782,-3.4746,-3.477,-3.4745,-3.4748,-3.4742,-3.4744,-3.4743,-3.4703,-3.4761,-3.486,-3.4869,-3.4744,-3.4743,-3.4742,0,-3.4822,-3.4835,-3.4859,-3.4858,-3.4842,-3.4854,-3.4848,-3.484,-3.4843,-3.4843,-3.4845,-3.4848,-3.485,-3.4852,-3.4829,-3.4805,-3.4856,-3.4818,-3.4847,-3.4848,-3.4859,-3.4858,-3.4958,-3.4863,-3.4863,-3.4863,-3.4863,0,-3.4901,-3.4926,-3.4892,-3.4908,-3.4934,-3.4906,-3.4933,-3.4923,-3.4915,-3.4927,-3.4895,-3.4907,-3.4876,-3.4884,-3.4866,-3.4889,-3.489,-3.4881,-3.4876,-3.4884,-3.4885,-3.4885,-3.4879,-3.4865,-3.4865,-3.4864,-3.4864,0,-3.4989,-3.4967,-3.4992,-3.4974,-3.497,-3.499,-3.4975,-3.4988,-3.4973,-3.4988,-3.499,-3.4967,-3.4975,-3.4952,-3.4957,-3.4945,-3.4976,-3.4965,-3.4979,-3.4975,-3.5004,-3.5001,-3.5107,-3.5119,-3.5017,-3.5018,-3.5019,0,-3.504,-3.5059,-3.5042,-3.5048,-3.5043,-3.5053,-3.5055,-3.5028,-3.5032,-3.5025,-3.5038,-3.5043,-3.5046,-3.5061,-3.5044,-3.5047,-3.5035,-3.5071,-3.5035,-3.5041,-3.5033,-3.5032,-3.5033,-3.5079,-3.508,-3.5081,-3.5082,0,-3.5133,-3.5121,-3.5126,-3.5127,-3.5131,-3.5131,-3.5128,-3.5135,-3.5105,-3.5111,-3.5118,-3.5121,-3.5125,-3.513,-3.5129,-3.5122,-3.5097,-3.5093,-3.51,-3.5107,-3.5114,-3.5109,-3.4998,-3.5091,-3.509,-3.5089,-3.5089,-3.5089,-3.5203,-3.5217,-3.5207,-3.5213,-3.5208,-3.5206,-3.5217,-3.5203,-3.5209,-3.521,-3.5193,-3.5204,-3.5195,-3.5191,-3.5187,-3.5194,-3.5177,-3.5187,-3.5189,-3.5192,-3.5196,-3.5114,-3.5194,-3.5194,-3.5193,-3.5193,-3.5193,0,-3.5292,-3.5284,-3.529,-3.5287,-3.5292,-3.5267,-3.5263,-3.5268,-3.5278,-3.5272,-3.5275,-3.5283,-3.5287,-3.5271,-3.5273,-3.5282,-3.527,-3.5283,-3.5282,-3.528,-3.5212,-3.5206,-3.5293,-3.5293,-3.5293,-3.5293,-3.5293,-3.5293,-3.534,-3.5361,-3.5348,-3.5366,-3.5357,-3.5367,-3.5366,-3.5364,-3.5359,-3.5369,-3.5372,-3.5361,-3.5351,-3.5351,-3.5354,-3.5349,-3.5351,-3.5368,-3.5358,-3.5295,-3.5285,-3.5276,-3.527,-3.5369,-3.5369,-3.5426,-3.5426,-3.5426]}]]